Theta_e
288 288 287 286 286 286 285 284 284 283 283 282 282 282 282 283 283 283 283 283 282 282 282 281 281 281 282 280 280 280 280 279 279 279 278 279 278 279 280 278 278 278
287 287 287 286 286 286 285 284 284 283 283 282 282 282 283 283 283 282 282 281 281 281 281 280 280 279 279 279 279 279 278 278 279 281 279 279 279 278 279 279 279 279
286 286 285 285 285 284 284 284 283 283 283 282 282 282 283 282 282 281 281 280 280 280 279 280 280 280 280 280 280 278 279 278 277 278 279 279 279 278 278 278 278 278
285 285 285 284 285 284 284 284 283 283 282 282 281 282 282 282 280 280 280 281 279 279 279 279 279 279 279 279 279 278 278 278 277 277 277 277 278 277 278 277 278 277
284 284 284 284 283 284 283 282 281 281 281 281 281 281 281 280 279 279 279 279 278 278 278 278 278 278 278 279 277 277 277 277 277 277 276 276 277 277 278 278 277 276
282 283 283 282 282 282 281 281 281 281 280 280 280 280 280 279 279 278 278 278 278 278 277 277 277 278 278 278 276 276 276 276 277 276 275 275 275 276 278 278 276 276
282 282 282 282 282 281 281 281 281 281 280 280 280 280 279 279 278 278 277 277 277 277 277 277 277 276 277 276 276 275 275 276 276 275 275 274 275 274 275 276 276 275
281 281 282 282 281 281 281 280 280 280 280 280 279 279 279 279 278 278 277 277 277 277 276 276 276 276 275 275 275 275 275 278 277 274 274 274 274 274 274 276 275 274
281 281 281 280 280 280 280 280 280 280 280 279 279 279 278 279 278 278 277 277 276 277 276 275 275 275 275 274 274 274 274 274 275 274 274 274 273 273 274 274 274 274
280 280 280 279 279 279 279 279 279 280 280 279 278 278 278 278 277 277 277 276 276 275 275 274 275 274 274 274 275 274 274 274 274 273 273 273 274 273 273 274 273 273
279 279 279 278 278 278 278 278 278 279 279 278 278 277 277 277 276 275 275 276 276 275 275 274 274 274 274 274 274 274 274 274 273 273 273 273 273 273 277 274 273 273
278 278 278 278 278 278 279 279 280 279 279 278 278 278 276 276 275 275 275 274 274 274 274 273 273 273 274 274 274 274 274 273 273 273 273 274 273 274 274 274 274 273
278 278 278 278 278 279 280 280 279 279 278 278 278 277 276 275 274 274 274 274 274 274 274 274 273 274 273 274 274 273 273 272 272 273 273 273 274 274 274 273 273 273
278 278 278 279 279 279 280 280 279 279 278 278 277 276 275 275 275 275 274 274 274 274 273 273 273 273 273 273 273 272 272 272 273 273 273 274 274 274 274 273 273 273
278 278 279 279 280 280 280 280 279 279 278 278 277 277 277 276 276 275 274 273 273 273 273 273 273 273 273 272 272 273 273 274 274 274 274 273 273 273 273 273 273 273
279 280 280 280 280 280 280 280 279 278 277 277 277 277 277 276 276 274 273 273 273 272 272 273 273 273 276 278 277 273 272 274 274 273 273 273 273 272 273 273 274 274
279 279 280 280 280 281 280 279 278 278 277 277 277 276 276 275 275 274 273 273 273 272 272 273 273 273 277 278 278 279 275 273 272 272 273 272 272 272 272 273 273 274
280 280 281 281 281 281 280 279 278 278 277 277 276 276 275 274 273 272 272 272 272 272 271 272 272 276 278 278 279 279 279 275 272 272 272 273 272 272 272 272 272 273
280 281 281 281 281 281 280 279 278 278 277 276 275 275 273 272 272 272 271 271 271 271 270 271 271 277 278 279 279 279 279 278 273 275 274 273 273 272 272 272 272 272
280 280 281 281 281 280 279 278 277 276 276 274 273 272 272 271 270 271 271 271 271 270 270 270 270 275 278 279 279 279 279 278 274 275 274 274 274 273 273 272 272 272
280 280 280 280 280 279 278 277 276 274 274 273 272 272 272 271 271 270 270 270 269 269 269 269 270 275 277 278 278 278 278 278 275 275 274 274 274 274 274 273 272 271
280 280 279 279 278 277 276 276 275 274 273 273 272 271 269 269 268 269 269 269 269 268 268 268 268 276 276 277 278 278 278 275 274 273 273 273 273 273 273 272 270 270
280 280 279 279 278 277 276 276 275 273 273 272 271 271 271 270 270 269 269 268 268 267 267 267 265 272 276 277 277 278 276 272 273 272 272 271 271 270 270 270 270 270
280 280 279 279 278 277 277 277 275 274 273 272 272 271 271 270 269 268 267 267 267 267 267 265 265 270 274 275 276 277 276 272 271 270 269 270 270 271 271 270 270 273
280 280 280 279 279 278 277 276 275 274 274 272 271 271 270 268 268 267 266 265 265 266 269 267 264 268 273 275 276 276 275 273 271 270 269 269 269 269 270 270 271 272
280 280 280 279 279 278 277 276 275 273 272 271 270 270 269 268 267 267 266 265 264 264 265 266 264 263 267 273 274 276 277 272 270 269 268 268 269 269 269 270 270 269
Wind_Speed
7 7 8 8 7 7 8 8 7 8 7 7 7 6 6 5 5 5 5 5 5 5 5 5 4 4 4 4 4 4 4 4 3 3 4 4 3 3 3 4 4 4
8 8 7 7 7 6 6 7 8 8 8 7 7 7 6 5 4 5 5 5 5 5 4 4 4 4 4 3 2 4 3 3 2 1 0 1 1 2 1 1 1 1
8 8 9 9 9 8 8 7 7 7 8 7 7 6 6 5 5 5 5 5 5 5 4 4 3 3 1 0 0 3 4 4 3 3 1 2 1 1 2 2 2 1
7 8 8 8 8 9 8 8 7 7 7 7 7 6 6 5 5 5 5 5 5 4 3 3 3 3 2 1 1 3 4 4 3 2 3 2 1 2 1 2 2 3
8 8 7 7 7 7 7 8 8 7 7 7 6 5 6 6 5 5 4 4 4 4 4 4 3 2 1 1 3 4 4 4 2 1 2 2 2 2 1 1 2 2
6 7 7 7 7 8 8 7 7 7 7 7 6 5 5 5 4 4 4 4 4 4 4 4 4 2 2 2 4 3 4 3 1 2 2 2 2 2 1 1 1 2
8 8 8 7 7 6 7 7 7 7 6 6 6 5 5 4 4 4 4 4 4 4 4 4 4 3 2 3 3 3 3 3 1 2 2 2 2 3 3 2 2 2
8 7 7 7 7 7 7 7 7 7 6 6 6 5 5 5 5 4 4 4 4 4 4 4 4 4 3 3 3 3 2 2 1 1 2 2 2 2 3 3 2 3
8 7 7 7 8 7 7 7 6 6 6 7 6 5 4 5 5 5 5 5 5 4 4 4 4 3 2 3 3 3 1 1 2 1 1 1 2 2 2 2 2 3
8 8 8 7 8 7 8 6 7 6 6 5 5 4 6 5 5 5 5 5 5 5 4 4 4 3 3 3 2 1 1 1 1 1 1 1 1 2 2 2 2 3
8 8 8 8 7 7 8 7 7 7 6 6 7 6 5 6 4 4 5 5 6 5 4 4 4 3 2 1 1 0 0 1 2 1 1 2 2 2 3 2 2 3
9 8 8 9 8 8 8 8 8 7 6 6 7 8 6 5 6 4 5 5 5 5 4 4 3 2 1 1 0 0 0 1 1 2 2 2 3 3 3 3 3 3
9 9 9 8 8 9 8 8 7 7 7 7 7 7 8 7 5 5 4 5 5 4 4 4 2 1 1 1 1 1 2 3 2 2 2 2 2 3 3 3 3 3
9 8 8 8 7 8 8 8 8 8 7 7 7 7 7 7 7 7 5 4 5 4 4 3 2 1 1 2 2 2 2 3 2 3 3 2 2 3 3 3 3 4
8 7 7 8 7 8 8 8 8 8 8 7 7 7 6 7 7 6 7 5 4 4 4 4 4 2 2 2 1 1 0 1 1 1 2 2 3 3 3 3 4 4
9 8 9 9 8 9 9 9 9 8 8 8 7 7 7 7 7 5 6 6 6 5 4 4 3 2 3 5 4 3 2 2 1 2 2 3 3 3 3 3 4 4
9 9 9 10 9 9 7 8 9 8 7 7 7 8 8 7 7 7 5 5 6 5 5 5 4 3 7 8 8 9 5 3 2 2 2 3 3 4 5 4 4 5
10 10 10 10 9 9 9 8 8 8 7 7 7 7 7 6 6 6 6 5 5 5 5 5 4 7 10 9 9 9 7 4 2 2 2 3 3 4 4 4 5 4
10 11 10 9 9 9 9 8 9 8 8 8 8 6 6 6 7 7 6 5 6 6 5 4 4 8 10 10 10 9 9 6 2 2 2 3 4 4 4 4 4 5
11 10 10 10 9 9 9 9 9 10 8 6 6 6 6 5 5 6 6 6 6 6 5 4 4 7 10 10 10 9 8 6 2 4 5 5 5 5 4 4 4 5
11 10 10 9 9 9 9 9 10 8 7 7 8 8 8 9 8 7 6 6 5 5 6 5 5 8 10 10 9 9 8 7 3 4 5 6 6 6 6 5 4 4
10 10 10 9 9 9 10 10 9 10 10 7 7 5 4 4 4 4 6 7 6 5 5 6 4 9 9 9 10 9 9 3 3 5 6 6 6 7 6 4 3 4
10 10 10 10 10 11 11 11 10 9 7 6 7 7 7 7 8 7 6 6 6 6 6 5 4 7 9 10 10 10 7 2 4 4 5 5 5 4 4 5 5 4
11 11 11 11 10 12 12 11 9 7 8 8 10 9 9 9 7 6 5 6 7 7 7 6 5 6 10 9 10 10 8 4 4 3 4 5 5 6 5 4 5 12
9 10 11 11 12 12 11 11 11 11 9 8 8 7 7 6 6 7 6 5 5 6 7 7 5 6 9 9 10 10 8 4 5 4 5 5 4 5 5 4 5 7
9 10 11 11 13 11 9 10 7 7 8 9 7 7 7 6 6 7 7 6 5 5 6 5 5 5 6 12 11 11 12 6 4 5 6 6 6 5 5 4 5 5
Wind_Direction
124 127 129 127 128 129 131 129 124 119 118 118 117 118 115 116 102 94 91 84 80 77 70 67 56 51 50 48 55 73 69 63 51 47 27 44 32 61 31 10 355 9
130 125 121 116 113 112 115 121 125 126 126 123 122 120 118 114 109 111 106 96 88 86 80 74 70 65 55 51 45 85 78 82 52 75 11 36 11 49 30 310 285 336
130 127 129 132 132 131 127 122 122 122 122 125 122 123 126 121 117 108 108 108 104 99 93 93 89 81 78 145 172 119 113 84 50 346 7 184 161 84 341 7 358 324
129 131 132 131 132 132 132 126 120 118 119 120 130 135 125 121 115 113 114 114 112 118 137 144 158 174 184 210 114 121 130 114 90 27 24 5 74 111 345 38 341 353
134 129 128 127 129 126 126 127 129 129 125 127 121 121 120 121 121 123 127 135 143 160 158 157 145 132 141 82 93 70 85 101 75 51 47 2 333 82 336 77 321 318
118 123 127 130 131 129 127 130 131 125 125 122 131 124 124 124 127 140 147 156 161 156 151 139 136 139 108 84 88 97 105 84 49 67 45 13 353 349 336 315 340 342
134 131 128 125 122 121 123 124 122 122 127 134 121 126 131 129 137 149 152 151 138 122 121 124 110 91 78 86 99 97 102 112 40 61 50 343 23 345 344 15 4 335
133 130 128 126 125 124 124 126 129 132 134 126 128 141 138 143 147 155 137 126 118 125 126 120 112 105 91 82 87 61 38 83 88 51 40 1 21 354 342 346 353 338
133 134 134 133 130 133 133 137 135 131 134 134 141 151 147 143 145 138 136 132 133 130 118 109 105 97 82 81 54 73 50 16 18 48 26 5 356 318 322 324 359 341
139 140 138 141 139 143 143 144 140 139 142 142 149 144 132 127 129 139 135 137 132 123 117 111 88 81 60 71 85 68 36 2 347 358 329 300 303 302 308 335 309 320
148 149 148 149 146 146 150 148 148 152 156 155 145 137 135 132 137 142 138 131 126 124 118 109 106 94 80 41 54 60 144 275 284 284 298 281 272 271 284 289 289 275
154 155 158 157 156 156 158 157 154 157 151 146 144 145 147 148 149 150 143 135 127 123 117 113 112 114 110 146 204 332 337 284 255 249 257 273 277 274 267 271 264 268
161 165 164 163 163 162 159 156 155 152 148 149 150 150 149 150 149 142 143 134 136 121 117 118 113 119 152 193 200 225 226 234 251 261 258 257 258 254 262 263 264 260
168 167 167 167 163 159 159 155 151 151 150 149 146 153 152 152 153 146 145 135 133 129 125 117 122 146 196 204 198 199 225 253 241 240 250 270 275 285 279 275 274 274
166 169 168 168 165 160 158 157 154 151 150 150 154 154 151 151 151 148 143 141 131 129 132 135 153 175 190 171 144 312 330 237 273 282 291 274 279 283 283 279 277 273
171 171 172 172 167 165 164 159 154 152 153 157 160 155 148 148 147 151 151 149 148 149 159 166 168 175 188 181 193 190 234 252 275 277 267 269 271 281 282 279 276 270
169 177 174 176 171 162 158 157 158 156 159 161 158 157 155 153 152 155 161 156 158 164 171 176 177 181 202 209 221 226 209 205 220 246 260 273 275 272 273 278 277 272
176 176 178 176 168 170 163 161 158 160 166 166 162 160 159 151 160 168 162 162 162 169 181 183 182 193 207 214 224 231 226 200 199 232 252 255 261 263 270 275 276 279
177 179 180 175 176 169 163 159 164 169 169 169 176 167 151 164 175 167 172 168 167 178 189 193 187 208 210 216 227 234 238 230 178 239 248 254 259 266 269 274 282 286
181 179 180 178 171 167 165 169 172 182 179 174 157 155 165 171 178 176 175 176 178 183 190 194 195 208 218 223 229 234 237 235 180 241 250 252 257 261 265 269 276 280
181 179 180 175 171 169 170 178 183 177 174 175 171 176 177 182 182 183 188 181 183 180 181 197 202 210 221 226 229 234 235 238 218 241 245 252 256 255 258 259 264 269
177 178 179 175 172 174 178 186 185 183 180 175 171 178 176 160 187 180 187 188 185 177 182 202 211 215 221 229 234 233 235 218 228 239 244 251 253 253 255 256 255 259
179 179 181 180 177 179 188 190 185 186 179 167 172 181 180 188 192 192 187 182 185 185 191 205 202 223 228 232 234 232 226 177 219 231 241 242 251 257 258 255 250 251
187 183 183 184 181 189 193 194 188 183 183 176 180 183 192 196 184 182 186 183 186 196 194 196 208 216 226 233 233 230 219 188 205 221 239 245 250 250 247 249 248 263
186 185 186 186 190 196 191 187 187 188 182 176 186 183 191 169 175 181 188 190 192 193 195 196 203 219 228 236 235 232 224 175 196 203 232 241 246 249 245 238 248 259
186 188 190 189 197 195 188 192 178 161 171 179 185 180 176 176 179 183 188 201 186 180 201 196 194 216 229 238 238 233 225 194 176 208 229 238 238 241 242 243 240 241